Location: Nirvana
(45.0297°N, 77.2628°W)
Time: 20:45:59
(UTC-05:00)

Envisat - Pass Details

Date: 27 October 2019
Orbit: 764 x 766 km, 98.1° (Epoch: 19 November)

Event Time Altitude Azimuth Distance (km) Brightness Sun altitude
Rises 20:51:10 0° 224° (SW) 3,222 6.6 -29.9°
Reaches altitude 10° 20:55:52 10° 264° (W) 2,304 6.3 -30.7°
Maximum altitude 20:56:45 10° 274° (W) 2,277 6.3 -30.9°
Drops below altitude 10° 20:57:37 10° 284° (WNW) 2,307 6.4 -31.0°
Sets 21:02:23 0° 325° (NW) 3,241 6.9 -31.8°
